User: anonymous   Login
Location: ????????
(55.0808°N, 38.5463°E)
Time: 11:54:30
(UTC+00:00)
Language:

Cosmos 1666 Rocket - Orbit

View from above orbital plane
View from above orbital plane
View from above satellite
View from above satellite

Ground track
Ground track

The orbit data is extracted from the following two-line orbital elements,

1 15890U 85058B   24167.86197257  .00000690  00000-0  78550-4 0  9998
2 15890  82.5264  28.0944 0022004  72.6911 287.6709 14.84596440 82670
Epoch (UTC): 15 June 2024 20:41:14
Eccentricity: 0.0022004
inclination: 82.5264°
perigee height: 599 km
apogee height: 630 km
right ascension of ascending node: 28.0944°
argument of perigee: 72.6911°
revolutions per day: 14.84596440
mean anomaly at epoch: 287.6709°
orbit number at epoch: 8267

The dashed part of the orbit path shows where the satellite is in the earth's shadow,  

DLR